, AK

(GMT )
St. Marys

Weather History for PASM - February, 2013

Change the Weather History Date:

Saturday, February 16, 2013

  Actual Average Record
Temperature  
Mean Temperature -12 °F -  
Max Temperature -7 °F 17 °F 39 °F (2001)
Min Temperature -16 °F 8 °F -18 °F (2009)
Degree Days  
Heating Degree Days 76    
Moisture  
Dew Point -18 °F    
Average Humidity 75    
Maximum Humidity 100    
Minimum Humidity 54    
Precipitation  
Precipitation 0.00 in - - ()
Sea Level Pressure  
Sea Level Pressure 30.08 in    
Wind  
Wind Speed 2 mph (NE)    
Max Wind Speed 7 mph    
Max Gust Speed -    
Visibility 10 miles    
Events      
Averages and records for this station are not official NWS values.
T = Trace of Precipitation, MM = Missing Value Source: NWS Daily Summary

Daily Weather History Graph

Daily Weather History Graph

Search for Another Location

Airport or City:

Trip Planner

Search our weather history database for the weather conditions in past years. The results will help you decide how hot, cold, wet, or windy it might be!

Date:

Astronomy

Feb. 16, 2013 Rise Set
Actual Time 9:34 AM AKST 6:41 PM AKST
Civil Twilight 8:47 AM AKST 7:27 PM AKST
Nautical Twilight 7:55 AM AKST 8:19 PM AKST
Astronomical Twilight 7:04 AM AKST 9:11 PM AKST
Moon 10:40 AM AKST (2/16) 3:02 AM AKST (2/16)
Length of Visible Light 10h 40m
Length of Day
9h 06m
Waxing Crescent, 41% of the Moon is Illuminated
Feb 16
Waxing Crescent
Feb 17
First Quarter
Feb 25
Full
Mar 4
Last Quarter
Mar 11
New

Hourly Weather History & Observations

Time (AKST) Temp. Windchill Dew Point Humidity Pressure Visibility Wind Dir Wind Speed Gust Speed Precip Events Conditions
12:16 AM -11.2 °F - -23.8 °F 54% 30.08 in 10.0 mi Calm Calm - N/A   Clear
12:36 AM -11.2 °F -20.6 °F -16.6 °F 77% 30.09 in 10.0 mi SSW 3.5 mph - N/A   Clear
12:56 AM -11.2 °F -20.6 °F -18.4 °F 70% 30.09 in 10.0 mi WSW 3.5 mph - N/A   Partly Cloudy
1:16 AM -9.4 °F -18.6 °F -16.6 °F 71% 30.10 in 10.0 mi WSW 3.5 mph - N/A   Mostly Cloudy
1:36 AM -11.2 °F - -18.4 °F 70% 30.09 in 10.0 mi Calm Calm - N/A   Mostly Cloudy
1:56 AM -11.2 °F -20.6 °F -18.4 °F 70% 30.09 in 10.0 mi West 3.5 mph - N/A   Mostly Cloudy
2:16 AM -11.2 °F - -18.4 °F 70% 30.10 in 10.0 mi Calm Calm - N/A   Clear
2:36 AM -11.2 °F - -20.2 °F 64% 30.10 in 10.0 mi Calm Calm - N/A   Clear
2:56 AM -11.2 °F - -18.4 °F 70% 30.11 in 10.0 mi Calm Calm - N/A   Mostly Cloudy
3:16 AM -11.2 °F - -22.0 °F 59% 30.11 in 10.0 mi Calm Calm - N/A   Overcast
3:36 AM -11.2 °F - -16.6 °F 77% 30.11 in 10.0 mi Calm Calm - N/A   Overcast
3:56 AM -9.4 °F - -16.6 °F 71% 30.11 in 10.0 mi Calm Calm - N/A   Overcast
4:16 AM -11.2 °F - -20.2 °F 64% 30.11 in 10.0 mi Calm Calm - N/A   Overcast
4:36 AM -11.2 °F - -18.4 °F 70% 30.11 in 10.0 mi Calm Calm - N/A   Overcast
4:56 AM -11.2 °F - -20.2 °F 64% 30.11 in 10.0 mi Calm Calm - N/A   Overcast
5:16 AM -11.2 °F - -20.2 °F 64% 30.10 in 10.0 mi Calm Calm - N/A   Overcast
5:36 AM -11.2 °F - -14.8 °F 84% 30.10 in 10.0 mi Calm Calm - N/A   Overcast
5:56 AM -9.4 °F - -18.4 °F 65% 30.10 in 10.0 mi Calm Calm - N/A   Overcast
6:16 AM -13.0 °F - -20.2 °F 70% 30.09 in 10.0 mi Calm Calm - N/A   Overcast
6:36 AM -11.2 °F - -18.4 °F 70% 30.09 in 10.0 mi Calm Calm - N/A   Mostly Cloudy
6:56 AM -14.8 °F - -20.2 °F 77% 30.08 in 10.0 mi Calm Calm - N/A   Partly Cloudy
7:16 AM -16.6 °F - -27.4 °F 58% 30.08 in 10.0 mi Calm Calm - N/A   Clear
7:36 AM -14.8 °F -24.8 °F -18.4 °F 84% 30.07 in 10.0 mi NE 3.5 mph - N/A   Clear
7:56 AM -14.8 °F - -20.2 °F 77% 30.07 in 10.0 mi Calm Calm - N/A   Partly Cloudy
8:16 AM -14.8 °F - -23.8 °F 64% 30.08 in 10.0 mi Calm Calm - N/A   Scattered Clouds
8:36 AM -13.0 °F - -16.6 °F 84% 30.09 in 10.0 mi Calm Calm - N/A   Mostly Cloudy
8:56 AM -11.2 °F - -20.2 °F 64% 30.09 in 10.0 mi Calm Calm - N/A   Overcast
9:16 AM -13.0 °F - -20.2 °F 70% 30.09 in 10.0 mi Calm Calm - N/A   Overcast
9:36 AM -11.2 °F - -14.8 °F 84% 30.09 in 10.0 mi Calm Calm - N/A   Overcast
9:56 AM -14.8 °F - -20.2 °F 77% 30.09 in 10.0 mi Calm Calm - N/A   Overcast
10:16 AM -14.8 °F - -20.2 °F 77% 30.08 in 10.0 mi Calm Calm - N/A   Overcast
10:36 AM -14.8 °F - -20.2 °F 77% 30.08 in 8.0 mi Calm Calm - N/A   Overcast
10:56 AM -14.8 °F - -18.4 °F 84% 30.09 in 10.0 mi Calm Calm - N/A   Overcast
11:16 AM -13.0 °F - -18.4 °F 77% 30.09 in 10.0 mi Calm Calm - N/A   Overcast
11:36 AM -11.2 °F - -14.8 °F 84% 30.09 in 10.0 mi Calm Calm - N/A   Overcast
11:56 AM -9.4 °F - -14.8 °F 77% 30.10 in 10.0 mi Calm Calm - N/A   Overcast
12:16 PM -11.2 °F - -20.2 °F 64% 30.09 in 10.0 mi Calm Calm - N/A   Overcast
12:36 PM -11.2 °F -20.6 °F -14.8 °F 84% 30.09 in 10.0 mi North 3.5 mph - N/A   Scattered Clouds
12:56 PM -11.2 °F - -16.6 °F 77% 30.08 in 5.0 mi Calm Calm - N/A   Clear
1:16 PM -11.2 °F -20.6 °F -14.8 °F 84% 30.08 in 10.0 mi NNE 3.5 mph - N/A   Clear
1:36 PM -11.2 °F - -14.8 °F 84% 30.08 in 7.0 mi Calm Calm - N/A   Clear
1:56 PM -9.4 °F -18.6 °F -16.6 °F 71% 30.08 in 10.0 mi NE 3.5 mph - N/A   Clear
2:16 PM -9.4 °F - -11.2 °F 92% 30.08 in 10.0 mi Calm Calm - N/A   Clear
2:36 PM -9.4 °F - -16.6 °F 71% 30.07 in 10.0 mi Calm Calm - N/A   Clear
2:56 PM -9.4 °F -18.6 °F -9.4 °F 100% 30.06 in 10.0 mi NE 3.5 mph - N/A   Clear
3:16 PM -9.4 °F -20.9 °F -14.8 °F 77% 30.05 in 10.0 mi NE 4.6 mph - N/A   Clear
3:36 PM -9.4 °F -18.6 °F -13.0 °F 84% 30.04 in 10.0 mi NE 3.5 mph - N/A   Clear
3:56 PM -9.4 °F -18.6 °F -14.8 °F 77% 30.04 in 10.0 mi NNE 3.5 mph - N/A   Clear
4:16 PM -7.6 °F -18.8 °F -11.2 °F 84% 30.03 in 10.0 mi NNE 4.6 mph - N/A   Clear
4:36 PM -7.6 °F -20.6 °F -11.2 °F 84% 30.02 in 10.0 mi NNE 5.8 mph - N/A   Clear
4:56 PM -7.6 °F -22.1 °F -16.6 °F 65% 30.02 in 10.0 mi NNE 6.9 mph - N/A   Clear
5:16 PM -9.4 °F -22.7 °F -9.4 °F 100% 30.02 in 10.0 mi NNE 5.8 mph - N/A   Clear
5:36 PM -9.4 °F -20.9 °F -16.6 °F 71% 30.03 in 10.0 mi ENE 4.6 mph - N/A   Clear
5:56 PM -11.2 °F -23.0 °F -16.6 °F 77% 30.03 in 6.0 mi NE 4.6 mph - N/A   Clear
6:16 PM -11.2 °F -23.0 °F -16.6 °F 77% 30.03 in 7.0 mi NE 4.6 mph - N/A   Clear
6:36 PM -13.0 °F -22.7 °F -20.2 °F 70% 30.03 in 9.0 mi NE 3.5 mph - N/A   Clear
6:56 PM -14.8 °F -27.2 °F -20.2 °F 77% 30.04 in 10.0 mi NE 4.6 mph - N/A   Clear
7:36 PM -14.8 °F -29.1 °F -20.2 °F 77% 30.04 in 10.0 mi NE 5.8 mph - N/A   Clear
7:56 PM -14.8 °F -27.2 °F -18.4 °F 84% 30.04 in 10.0 mi NE 4.6 mph - N/A   Clear
8:16 PM -13.0 °F -27.0 °F -20.2 °F 70% 30.05 in 10.0 mi NE 5.8 mph - N/A   Clear
8:36 PM -14.8 °F -27.2 °F -18.4 °F 84% 30.05 in 10.0 mi NE 4.6 mph - N/A   Clear
8:56 PM -14.8 °F -27.2 °F -22.0 °F 70% 30.06 in 10.0 mi NE 4.6 mph - N/A   Clear
9:16 PM -14.8 °F -29.1 °F -18.4 °F 84% 30.06 in 10.0 mi NE 5.8 mph - N/A   Clear
9:36 PM -14.8 °F -27.2 °F -18.4 °F 84% 30.07 in 10.0 mi NE 4.6 mph - N/A   Clear
9:56 PM -14.8 °F -27.2 °F -22.0 °F 70% 30.07 in 10.0 mi NNE 4.6 mph - N/A   Clear
10:16 PM -14.8 °F -27.2 °F -18.4 °F 84% 30.07 in 10.0 mi NE 4.6 mph - N/A   Clear
10:36 PM -14.8 °F -27.2 °F -22.0 °F 70% 30.08 in 10.0 mi NNE 4.6 mph - N/A   Clear
10:56 PM -14.8 °F -29.1 °F -20.2 °F 77% 30.08 in 10.0 mi NE 5.8 mph - N/A   Clear
11:16 PM -14.8 °F -29.1 °F -22.0 °F 70% 30.08 in 10.0 mi NNE 5.8 mph - N/A   Clear
11:36 PM -14.8 °F -27.2 °F -18.4 °F 84% 30.09 in 10.0 mi NNE 4.6 mph - N/A   Clear
11:56 PM -14.8 °F -27.2 °F -20.2 °F 77% 30.10 in 10.0 mi NNE 4.6 mph - N/A   Clear